Other Surface Observations
Issued by NWS Tucson, AZ

Home | Current Version | Previous Version | Text Only | Print | Product List | Glossary On
Versions: 1 2 3 4 5 6 7 8 9 10 11 12 13 14 15 16 17 18 19 20 21 22 23 24 25 26 27 28 29 30 31 32 33 34 35 36 37 38 39 40 41 42 43 44 45 46 47 48 49 50
000
SXUS55 KTWC 012316
OSOTWC

WEATHER ROUNDUP FOR SOUTHEAST ARIZONA
NATIONAL WEATHER SERVICE TUCSON AZ
415 PM MST FRI AUG 01 2014

AZZ504>506-514-020015-
LOCATION       SKY/WX    TMP DP  RH WIND       PRES   REMARKS
TUCSON         CLOUDY    90  58  33 W3        29.97F
DAVIS-MONTHAN  CLOUDY    89  60  36 W6        29.96F
CHILDRENS PARK N/A       90  60  37 W4                PIMA CO DEQ
ALVERNON/22ND  N/A      N/A N/A N/A N/A               PIMA CO DEQ
CHERRY/GLENN   N/A      N/A N/A N/A N/A               PIMA CO DEQ
TANGERINE      N/A       94 N/A N/A W5                PIMA CO DEQ
CONTL RANCH    N/A       95  61  33 NW6               PIMA CO DEQ
GRANT/1ST      N/A       91  58  33 SW3               PIMA CO DEQ
CRAYCROFT/22ND N/A      N/A N/A N/A N/A               PIMA CO DEQ
GOLFLINKS/KOLB N/A      N/A N/A N/A N/A               PIMA CO DEQ
AJO/12TH       N/A       91  59  34 SW2               PIMA CO DEQ
SAGUARO EAST   N/A      N/A N/A N/A N/A               PIMA CO DEQ
FAIRGROUNDS    N/A       89 N/A N/A SE4               PIMA CO DEQ
SAGUARO        N/A       93  56  29 SW6G12            *SABINO CYN
SAN CARLOS     N/A       94  60  32 SE4               *SAN CARLOS
GREEN VALLEY   N/A       89  62  40 E3                PIMA CO DEQ
HORSE CAMP CYN N/A       89  55  32 W9G20             *ARAVAIPA CYN
RINCON MTNS    N/A       65  53  66 SW2               *NR MANNING CAMP
$$

AZZ509>511-020015-
LOCATION       SKY/WX    TMP DP  RH WIND       PRES   REMARKS
SAFFORD        MOSUNNY   92  54  27 W9        29.96F
STRAY HORSE    N/A       57  53  88 N4G20             *
TRAIL CABIN    N/A       63  51  65 N10G22            *N OF GRANVILLE
BLACK HILLS    N/A       92  55  29 SE4G12            *N OF FT THOMAS
DRY LAKE       N/A       58  45  62 NE4               *NATANES MTNS
NOON CREEK     N/A       84  59  43 NE2               *PINALENO MTNS
COLUMBINE      N/A       60  55  83 S4                *PINALENO MTNS
GUTHRIE        N/A       80  53  40 SW6G15            *SW OF GUTHRIE
$$

AZZ502-503-513-020015-
LOCATION       SKY/WX    TMP DP  RH WIND       PRES   REMARKS
NOGALES        MOSUNNY   89  57  33 SW5       30.06F
SELLS          N/A       86  62  44 W9G19             *
SASABE         N/A       87  58  37 S4                *ALTAR VLY
HOPKINS        N/A      127 127  93 NW5G15            *SANTA RITA MTNS
CARR CYN       N/A       77  61  57 E3                *W OF HEREFORD
$$

AZZ507-508-512-020015-
LOCATION       SKY/WX    TMP DP  RH WIND       PRES   REMARKS
SIERRA VISTA   MOSUNNY   82  55  39 CALM      30.12F
DOUGLAS        MOSUNNY   81  62  52 SW5       30.10F
EMPIRE MTNS    N/A       83  58  42 NE4G21            *LAS CIENEGAS NCA
MULESHOE RANCH N/A       75  60  60 S11G25            *PRESERVE
HEADQUARTERS   N/A       81  58  45 W5G11             *CHIRICAHUA MTNS
$$

.............................NOTES.............................
THIS IS AN AUTOMATED COLLECTIVE WITH MINIMAL QUALITY CONTROL.
PIMA CO DEQ SITES HAVE NONSTANDARD WIND SENSOR HEIGHTS.
PIMA CO DEQ SITES DO NOT REPORT WIND GUSTS.
* INDICATES WIND SENSORS LOCATED AT 20 FEET INSTEAD OF 33 FEET.
..............................KEY..............................
SKY/WX - SKY CONDITION/WEATHER
TMP    - TEMPERATURE IN FAHRENHEIT
DP     - DEWPOINT IN FAHRENHEIT
RH     - RELATIVE HUMIDITY IN PERCENT
WIND   - DIRECTION AND SPEED IN MILES PER HOUR (MPH)
VRB    - VARIABLE WIND DIRECTION
PRES   - MEAN SEA LEVEL PRESSURE IN INCHES OF MERCURY
         F - FALLING PRESSURE   R - RISING PRESSURE
         S - STEADY PRESSURE
VSB    - VISIBILITY IN MILES
HX     - HEAT INDEX IN FAHRENHEIT
WCI    - WIND CHILL INDEX IN FAHRENHEIT
N/A    - NOT AVAILABLE
AFB    - AIR FORCE BASE
         DAVIS-MONTHAN IS DAVIS-MONTHAN AIR FORCE BASE
CYN    - CANYON
MTNS   - MOUNTAINS
NCA    - NATIONAL CONSERVATION AREA
NR     - NEAR
VLY    - VALLEY
CONTL  - CONTINENTAL
PIMA CO DEQ - PIMA COUNTY DEPT OF ENVIRONMENTAL QUALITY



USA.gov is the U.S. government's official web portal to all federal, state and local government web resources and services.